[[[{"header":{"parameterUnit":"kt","parameterCategory":2,"dx":1,"dy":1,"la1":30.253999710083008,"la2":30.299108505249023,"lo1":-89.0895004272461,"lo2":-89.04439544677734,"nx":28,"ny":28,"refTime":"2022-10-29T21:00:00:Z","depth":"0","parameterNumber":2,"parameterNumberName":"U-component_of_CURRENTS"},"data":[0.7598,0.7634,0.7744,0.7642,0.7709,0.7455,0.7405,0.7299,0.7337,0.7049,0.684,0.6859,0.6873,0.6519,0.6022,0.5868,0.5586,0.5163,0.5476,0.6331,0.648,0.6622,0.6263,0.5219,0.5218,0.3873,0.3864,0.3856,0.7739,0.7876,0.8091,0.8208,0.8191,0.8364,0.8445,0.8295,0.8178,0.8399,0.8451,0.8177,0.7847,0.7788,0.7311,0.7009,0.6773,0.6821,0.6387,0.6354,0.751,0.7142,0.6268,0.6268,0.6269,0.6269,0.6269,0.627,0.7964,0.8076,0.8326,0.8507,0.8649,0.8693,0.8657,0.883,0.8892,0.8958,0.9378,0.9356,0.9291,0.9224,0.9184,0.8589,0.8886,0.8315,0.8425,0.8258,0.7739,0.8954,0.8575,0.8583,0.859,0.8596,0.8602,0,0.8071,0.8214,0.847,0.8689,0.8828,0.901,0.9187,0.9227,0.9562,0.969,0.9911,1.0062,1.0238,1.0005,1.006,1.0078,0.9801,1.009,0.9927,0.8791,0.8394,0.8208,0.9725,0.9465,0.9479,0.9489,0.9497,0.9502,0.8148,0.8286,0.8724,0.8844,0.9033,0.9229,0.9349,0.9647,0.9755,1.0144,1.0194,1.0462,1.0609,1.0832,1.0791,1.0928,1.076,1.0412,1.0208,0.9931,0.9975,0.9742,0.9566,0.965,0.9631,0.9615,0.9603,0,0.8191,0.8478,0.8756,0.9172,0.9263,0.939,0.9694,0.9791,1.004,1.0219,1.029,1.0643,1.0848,1.1094,1.1333,1.1313,1.1061,1.137,1.0763,1.0678,1.0107,1.0132,0.9614,0.9373,1.1191,1.1183,1.1176,0,0.8405,0.8565,0.9004,0.9143,0.9334,0.9645,0.9795,1.0024,1.025,1.0401,1.0659,1.0769,1.1028,1.119,1.1332,1.1354,1.1549,1.1296,1.1301,1.077,1.0697,1.0333,1.0315,1.1651,1.1648,1.1646,1.1644,0,0.8437,0.8885,0.9116,0.9265,0.9718,0.9808,0.9995,1.028,1.0424,1.0653,1.0726,1.0953,1.1021,1.1166,1.1316,1.131,1.1513,1.153,1.1309,1.1293,1.0649,1.0565,1.0393,1.1641,1.164,1.1639,1.1638,0,0.8673,0.8921,0.9238,0.9604,0.9693,0.986,1.0107,1.0326,1.058,1.0688,1.0832,1.0925,1.1094,1.104,1.1278,1.1208,1.1283,1.135,1.1363,1.0845,1.0824,1.0491,1.0542,1.0273,1.1548,1.1546,1.1544,0,0.865,0.9003,0.9223,0.9522,0.972,0.9951,1.0147,1.0385,1.0549,1.0692,1.0818,1.0939,1.098,1.1002,1.1077,1.1146,1.1248,1.1136,1.1173,1.1174,1.0823,1.099,1.0358,1.0546,1.1515,1.1518,1.152,0,0.8599,0.9074,0.9101,0.9259,0.9625,0.9772,1.0021,1.0281,1.0392,1.0606,1.0728,1.091,1.0903,1.0912,1.0953,1.1001,1.1213,1.0932,1.0926,1.107,1.1379,1.1005,1.099,1.1177,1.1178,1.1179,1.1497,0,0.8842,0.899,0.9078,0.9367,0.9535,0.9725,1.0,1.0127,1.0257,1.0416,1.0579,1.0603,1.0653,1.0775,1.0732,1.0888,1.0886,1.0805,1.0643,1.0814,1.0941,1.0961,1.0633,1.0626,1.0621,1.0616,0,0,0.8716,0.8886,0.9033,0.9219,0.9382,0.9588,0.9775,0.9931,1.0165,1.0225,1.0229,1.0381,1.0378,1.0521,1.0615,1.0609,1.0625,1.0531,1.0736,1.0751,1.0764,1.0892,1.0917,1.0607,1.0605,1.0603,1.0601,0,0.8808,0.8854,0.8963,0.9149,0.9432,0.9586,0.9658,0.994,1.0042,1.0165,1.02,1.0261,1.0286,1.0344,1.0363,1.0527,1.0481,1.0592,1.0652,1.0693,1.0716,1.0734,1.0866,1.0893,1.0588,1.0589,1.0589,0,0.8811,0.8964,0.9016,0.925,0.9412,0.9614,0.969,0.9889,1.0056,0.9952,1.0089,1.0102,1.0072,1.0165,1.0186,1.0097,1.0294,1.0218,1.0243,1.0129,1.0157,1.0184,1.0208,0.9892,0.9891,0.989,0,0,0.887,0.8953,0.923,0.9293,0.9396,0.9628,0.9738,0.9867,0.9972,0.9994,1.0008,1.0001,1.0043,1.0025,1.0023,1.0034,0.9973,1.0145,1.0177,1.0205,1.0111,1.0144,1.017,0.9886,0.9886,0.9885,0,0,0.8928,0.9204,0.9255,0.9328,0.9546,0.9812,0.9875,0.9988,1.0015,1.0001,0.9973,0.9957,1.0025,0.9925,0.9874,1.0045,0.9894,0.99,1.0145,1.0183,1.0215,1.0117,0.9828,0,0,0,0,0,0.9178,0.918,0.9222,0.9271,0.9525,0.9778,0.9816,0.9971,1.0003,1.0044,1.0021,0.9981,0.9924,0.9875,0.9853,1.0021,0.9829,0.9839,0.9848,1.0167,1.0209,1.0245,0,0,0,0,0,0,0.9199,0.9249,0.9228,0.9484,0.955,0.9772,0.9818,0.9856,1.0001,1.0013,0.9991,0.9978,0.9937,0.9881,0.9862,1.0028,0.9834,0.9833,0.9841,0.9849,1.0181,1.0216,1.0245,0,0,0,0,0,0.9217,0.9258,0.961,0.9486,0.9541,0.9779,0.9814,0.9848,0.9932,0.9943,0.9941,1.006,0.9937,0.9919,0.9869,1.0042,0.9847,0.984,0.9838,0.9845,0.9851,1.0198,0,0,0,0,0,0,0.9231,0.9243,0.9626,0.9653,0.9493,0.977,0.9807,0.984,0.9846,0.9863,1.0,1.0007,0.9937,0.9922,0.9908,1.0057,0.9857,0.985,0.9846,0.9843,0.9849,0.9853,0,0,0,0,0,0,0.9227,0.9261,0.9638,0.9637,0.9664,0.9761,0.9794,0.9719,0.9832,0.9889,0.9907,1.0002,0.989,0.9925,0.9914,0.9797,0.9865,0.9858,0.9854,0.9851,0.9848,0.9852,0,0,0,0,0,0,0.9246,0.9276,0.9628,0.9649,0.9672,0.9959,0.9683,0.9867,1.0047,0.9874,1.0051,1.0052,0.9886,0.9881,0.9917,0.9806,0.98,0.9865,0.986,0.9857,0.9855,0,0,0,0,0,0,0,0.9262,0.9003,0.9507,0.9658,0.9678,0.9914,0.9917,0.992,1.0047,1.0049,1.005,1.0052,0.9902,0.9895,0.9888,0.9813,0,0,0.9865,0.9862,0,0,0,0,0,0,0,0,0.8996,0.9001,0.9508,0.9516,0.9524,0.9914,0.9917,0.9919,1.0048,1.0049,1.005,1.0051,0.99,0.9895,0.9889,0,0,0,0,0,0,0,0,0,0,0,0,0,0,0,0.9509,0.9516,0,0.9914,0.9917,0.9919,1.0048,1.0049,1.005,1.0051,0.9899,0.9894,0.9889,0,0,0,0,0,0,0,0,0,0,0,0,0,0,0,0,0,0,0,0,0,0,0,0,0,0,0,0,0,0,0,0,0,0,0,0,0,0,0,0,0,0,0,0,0,0,0,0,0,0,0,0,0,0,0,0,0,0,0,0,0,0,0,0,0,0,0,0,0]}],[{"header":{"parameterUnit":"kt","parameterCategory":2,"dx":1,"dy":1,"la1":30.253999710083008,"la2":30.299108505249023,"lo1":-89.0895004272461,"lo2":-89.04439544677734,"nx":28,"ny":28,"refTime":"2022-10-29T21:00:00:Z","depth":"0","parameterNumber":3,"parameterNumberName":"V-component_of_CURRENTS"},"data":[0.1291,0.1482,0.1518,0.1872,0.1994,0.2237,0.2392,0.2687,0.3038,0.3633,0.3992,0.4197,0.3589,0.1445,-0.0018,-0.0346,-0.0884,-0.0867,-0.1127,-0.0942,-0.0937,-0.0932,-0.1079,-0.1001,-0.1002,-0.1682,-0.1689,-0.1695,0.1131,0.1208,0.1356,0.1521,0.1736,0.1704,0.1991,0.2173,0.2579,0.3033,0.3339,0.3428,0.2826,0.2049,0.0903,0.0281,-0.006,-0.0087,-0.0465,-0.0557,0.0022,-0.0075,0.0219,0.0219,0.022,0.022,0.022,0.0221,0.0862,0.0951,0.1016,0.1152,0.1294,0.1499,0.1652,0.1867,0.2152,0.2487,0.255,0.2878,0.2374,0.1893,0.1478,0.0636,0.0529,0.0231,0.0025,-0.0107,-0.0294,0.0429,0.0783,0.0782,0.0782,0.0781,0.0781,0,0.0644,0.0645,0.0677,0.081,0.0929,0.1036,0.1182,0.1346,0.1369,0.1574,0.1867,0.1986,0.1868,0.1636,0.1298,0.1032,0.0092,0.041,0.0048,-0.0472,-0.0575,-0.0712,-0.0207,0.013,0.0126,0.0122,0.012,0.0118,0.0436,0.0456,0.0432,0.0504,0.0483,0.057,0.0669,0.0612,0.0753,0.0884,0.105,0.111,0.1233,0.1118,0.0692,0.0476,0.0034,0.0311,-0.0083,-0.0344,-0.0578,-0.0751,-0.0863,0.007,0.0076,0.0081,0.0085,0,0.0355,0.0235,0.0243,0.0163,0.0165,0.0245,0.0284,0.0391,0.0347,0.0537,0.056,0.044,0.0471,0.0206,0.005,-0.0202,-0.0388,-0.026,-0.0152,-0.0146,-0.045,-0.0656,-0.0575,-0.0678,-0.009,-0.0084,-0.0078,0,0.015,0.0145,0.0012,0.0008,0.0078,-0.008,0.0024,-0.0047,-0.0043,0.0087,-0.0183,-0.0049,-0.0425,-0.04,-0.0631,-0.0598,-0.0632,-0.0809,-0.0807,-0.0819,-0.0804,-0.1021,-0.1228,-0.104,-0.1043,-0.1046,-0.1048,0,0.0058,-0.0094,-0.0109,-0.0162,-0.0318,-0.0298,-0.0347,-0.0435,-0.041,-0.0471,-0.0388,-0.0572,-0.0532,-0.0704,-0.0836,-0.1008,-0.0814,-0.1078,-0.0935,-0.0918,-0.0812,-0.0791,-0.0933,-0.1052,-0.1053,-0.1054,-0.1055,0,-0.0149,-0.0208,-0.0272,-0.0368,-0.0386,-0.0449,-0.0466,-0.0566,-0.0661,-0.0699,-0.0778,-0.0888,-0.0967,-0.113,-0.1195,-0.1269,-0.1315,-0.1375,-0.1366,-0.1157,-0.1242,-0.0865,-0.0752,-0.1078,-0.1245,-0.1248,-0.1251,0,-0.0174,-0.0269,-0.0398,-0.0485,-0.0531,-0.0665,-0.0747,-0.0855,-0.0941,-0.0971,-0.112,-0.1179,-0.1384,-0.1383,-0.1466,-0.1546,-0.1515,-0.1651,-0.1465,-0.1454,-0.1258,-0.1193,-0.1159,-0.0816,-0.129,-0.1286,-0.1283,0,-0.0186,-0.0398,-0.0401,-0.0432,-0.0629,-0.0677,-0.0819,-0.092,-0.0909,-0.1128,-0.1101,-0.1392,-0.1409,-0.1478,-0.1606,-0.1631,-0.1571,-0.1674,-0.1673,-0.1461,-0.1433,-0.1265,-0.1221,-0.1692,-0.1689,-0.1687,-0.1315,0,-0.0294,-0.0368,-0.0409,-0.0537,-0.062,-0.0701,-0.0852,-0.0936,-0.102,-0.111,-0.1237,-0.1411,-0.1498,-0.1624,-0.17,-0.1749,-0.1685,-0.1786,-0.1696,-0.174,-0.1573,-0.1548,-0.1825,-0.1825,-0.1824,-0.1823,0,0,-0.0237,-0.0324,-0.0418,-0.0492,-0.0552,-0.068,-0.0741,-0.0859,-0.1052,-0.107,-0.1133,-0.1372,-0.15,-0.1614,-0.169,-0.178,-0.1708,-0.1695,-0.1757,-0.175,-0.1743,-0.1585,-0.1562,-0.1822,-0.1822,-0.1822,-0.1821,0,-0.0265,-0.0326,-0.0378,-0.0468,-0.0596,-0.0687,-0.0709,-0.0871,-0.0937,-0.1084,-0.1182,-0.1294,-0.1484,-0.1575,-0.1639,-0.1765,-0.1687,-0.1838,-0.1754,-0.1754,-0.1748,-0.1742,-0.1586,-0.1566,-0.182,-0.182,-0.182,0,-0.0245,-0.0324,-0.0366,-0.0501,-0.0587,-0.0685,-0.0719,-0.0825,-0.0912,-0.0983,-0.1134,-0.1244,-0.1357,-0.1508,-0.1571,-0.1533,-0.1609,-0.1675,-0.1681,-0.158,-0.1572,-0.1569,-0.1565,-0.1593,-0.1592,-0.1591,0,0,-0.0248,-0.0311,-0.0447,-0.0515,-0.056,-0.0681,-0.0745,-0.0814,-0.0931,-0.0977,-0.1082,-0.1191,-0.1314,-0.1364,-0.1484,-0.1585,-0.1498,-0.1645,-0.1655,-0.1664,-0.157,-0.1564,-0.1562,-0.1587,-0.1587,-0.1586,0,0,-0.0265,-0.0405,-0.0433,-0.0513,-0.0624,-0.0777,-0.0826,-0.0876,-0.0984,-0.099,-0.1079,-0.1109,-0.1258,-0.129,-0.1231,-0.1458,-0.1418,-0.1432,-0.1423,-0.1437,-0.1448,-0.1307,-0.124,0,0,0,0,0,-0.0346,-0.0385,-0.0408,-0.0438,-0.0617,-0.0756,-0.0783,-0.0881,-0.0883,-0.0922,-0.1023,-0.1029,-0.1299,-0.1248,-0.1271,-0.1334,-0.1535,-0.1545,-0.1553,-0.157,-0.1584,-0.1596,0,0,0,0,0,0,-0.0359,-0.0392,-0.0409,-0.0555,-0.0598,-0.0754,-0.0783,-0.081,-0.0882,-0.089,-0.1014,-0.1033,-0.1099,-0.1237,-0.1258,-0.1318,-0.1233,-0.1539,-0.1547,-0.1554,-0.1574,-0.1586,-0.1596,0,0,0,0,0,-0.037,-0.0397,-0.0651,-0.0557,-0.0594,-0.0737,-0.0781,-0.0805,-0.0858,-0.0981,-0.1003,-0.0928,-0.1098,-0.1121,-0.125,-0.1308,-0.1219,-0.1227,-0.1544,-0.155,-0.1556,-0.158,0,0,0,0,0,0,-0.0378,-0.0418,-0.0662,-0.0678,-0.0548,-0.0731,-0.0759,-0.0799,-0.0945,-0.0969,-0.0899,-0.0904,-0.1097,-0.1115,-0.1133,-0.1303,-0.1208,-0.1215,-0.122,-0.1549,-0.1553,-0.1558,0,0,0,0,0,0,-0.0405,-0.043,-0.067,-0.0653,-0.0668,-0.0726,-0.0751,-0.0831,-0.0944,-0.0853,-0.0863,-0.0899,-0.1064,-0.1111,-0.1125,-0.1248,-0.1199,-0.1206,-0.1211,-0.1215,-0.1553,-0.1556,0,0,0,0,0,0,-0.0418,-0.044,-0.0649,-0.0661,-0.0674,-0.0864,-0.0798,-0.0968,-0.0952,-0.0844,-0.0952,-0.0952,-0.1059,-0.1075,-0.112,-0.1236,-0.1245,-0.1199,-0.1204,-0.1208,-0.121,0,0,0,0,0,0,0,-0.0429,-0.0248,-0.0569,-0.0667,-0.0679,-0.0833,-0.0837,-0.0841,-0.0952,-0.0952,-0.0952,-0.0952,-0.1156,-0.1164,-0.1172,-0.1226,0,0,-0.1198,-0.1202,0,0,0,0,0,0,0,0,-0.0242,-0.0247,-0.057,-0.0573,-0.0577,-0.0833,-0.0837,-0.084,-0.0952,-0.0952,-0.0952,-0.0952,-0.1158,-0.1165,-0.1172,0,0,0,0,0,0,0,0,0,0,0,0,0,0,0,-0.057,-0.0573,0,-0.0834,-0.0836,-0.0839,-0.0952,-0.0952,-0.0952,-0.0952,-0.116,-0.1165,-0.1171,0,0,0,0,0,0,0,0,0,0,0,0,0,0,0,0,0,0,0,0,0,0,0,0,0,0,0,0,0,0,0,0,0,0,0,0,0,0,0,0,0,0,0,0,0,0,0,0,0,0,0,0,0,0,0,0,0,0,0,0,0,0,0,0,0,0,0,0,0]}]],[[{"header":{"parameterUnit":"kt","parameterCategory":2,"dx":1,"dy":1,"la1":30.253999710083008,"la2":30.299108505249023,"lo1":-89.0895004272461,"lo2":-89.04439544677734,"nx":28,"ny":28,"refTime":"2022-10-29T21:00:00:Z","depth":"2","parameterNumber":2,"parameterNumberName":"U-component_of_CURRENTS"},"data":[0.4782,0.4715,0.4669,0.4589,0.4667,0.4518,0.4443,0.4238,0.4226,0.3978,0.394,0.426,0.4513,0.3811,0.376,0.3478,0.3883,0.3344,0.4901,0.494,0.5035,0.5348,0.4921,0,0,0,0,0,0.4845,0.4877,0.4899,0.4999,0.5003,0.5199,0.5271,0.5063,0.4931,0.5095,0.5106,0.4676,0.4556,0.4745,0.4481,0.448,0.4467,0.4308,0.4246,0.4363,0.4468,0.4104,0.3318,0.3312,0.3306,0.33,0,0,0.4962,0.4991,0.5058,0.5171,0.5347,0.542,0.5356,0.5509,0.5572,0.5654,0.593,0.5864,0.5998,0.5808,0.5657,0.5615,0.6077,0.5809,0.5849,0.5903,0.5614,0.5446,0.5226,0.5234,0.524,0.5246,0.5251,0,0.5057,0.5128,0.52,0.5331,0.5467,0.5603,0.5834,0.5873,0.6191,0.633,0.6483,0.6537,0.6793,0.6561,0.6646,0.6577,0.6757,0.6531,0.7508,0.6121,0.5966,0.5907,0.5931,0.589,0.5902,0.591,0.5916,0.5921,0.5145,0.519,0.5374,0.546,0.5527,0.5761,0.5905,0.6207,0.6345,0.6719,0.6806,0.7079,0.7145,0.7371,0.7316,0.7363,0.7513,0.6803,0.654,0.7266,0.7209,0.7188,0.7166,0.6044,0.6029,0.6016,0.6005,0,0.5217,0.5242,0.5337,0.5536,0.5627,0.5817,0.6074,0.6233,0.6558,0.6761,0.6844,0.7196,0.7391,0.7568,0.7713,0.7646,0.7655,0.7571,0.6973,0.6855,0.7226,0.7194,0.7429,0.742,0.7413,0.7407,0.7402,0,0.5251,0.5287,0.5407,0.5432,0.5629,0.584,0.6068,0.6328,0.6606,0.6735,0.6994,0.7138,0.7374,0.7512,0.751,0.7518,0.7738,0.7327,0.729,0.679,0.6716,0.7355,0.7315,0.7669,0.7666,0.7664,0.7662,0,0.5324,0.5347,0.5388,0.5412,0.5611,0.5773,0.5939,0.6256,0.6395,0.6712,0.6849,0.7133,0.7281,0.7386,0.7384,0.7321,0.7578,0.749,0.7241,0.7221,0.6738,0.666,0.7659,0.7659,0.7658,0.7657,0.7656,0,0.5319,0.5352,0.5372,0.557,0.5597,0.5669,0.6013,0.613,0.6411,0.6537,0.68,0.6844,0.7061,0.6951,0.7217,0.7108,0.7104,0.7083,0.7094,0.6743,0.6582,0.6326,0.6421,0.7154,0.7149,0.7144,0.714,0,0.5396,0.5387,0.5405,0.5464,0.5503,0.5628,0.5764,0.5935,0.6074,0.627,0.6423,0.6552,0.6543,0.6644,0.6749,0.6738,0.6857,0.6678,0.6833,0.6839,0.6546,0.674,0.617,0.638,0.7081,0.7087,0.7092,0,0.5462,0.5464,0.5444,0.5494,0.5515,0.555,0.5697,0.579,0.5972,0.6063,0.628,0.6358,0.6457,0.6479,0.6482,0.6548,0.6755,0.6448,0.6448,0.659,0.7023,0.6699,0.6708,0.671,0.6716,0.6722,0.7045,0,0.5527,0.5506,0.5502,0.5481,0.5515,0.5492,0.5542,0.5647,0.5763,0.5809,0.601,0.6037,0.6181,0.6166,0.6111,0.6295,0.6274,0.6189,0.6129,0.6286,0.64,0.6438,0.5938,0.5934,0.5931,0.5928,0,0,0.5566,0.5497,0.5491,0.5475,0.5496,0.5506,0.5508,0.5537,0.5581,0.568,0.5659,0.5876,0.583,0.5984,0.6001,0.5966,0.6019,0.5958,0.6181,0.6209,0.6235,0.6354,0.6394,0.5923,0.5921,0.592,0.5919,0,0.5536,0.5516,0.5506,0.5469,0.5479,0.5479,0.5491,0.5509,0.5543,0.5624,0.5651,0.5742,0.5744,0.5772,0.5784,0.5914,0.5893,0.5891,0.6045,0.6149,0.6182,0.621,0.6334,0.6372,0.5911,0.5912,0.5912,0,0.552,0.5512,0.5504,0.5435,0.5435,0.542,0.5429,0.546,0.5495,0.5481,0.5571,0.5591,0.5574,0.5625,0.5642,0.5602,0.5798,0.5679,0.5694,0.572,0.5823,0.586,0.5892,0.548,0.5479,0.5478,0,0,0.5508,0.5496,0.5438,0.5424,0.5411,0.5431,0.545,0.5458,0.5474,0.5485,0.5493,0.5528,0.5546,0.5553,0.5534,0.5593,0.562,0.5633,0.5653,0.567,0.5705,0.5812,0.5847,0.5475,0.5475,0.5475,0,0,0.5495,0.5462,0.5454,0.5432,0.538,0.5375,0.5407,0.5437,0.5456,0.5524,0.5487,0.5477,0.552,0.5477,0.5445,0.5523,0.543,0.5436,0.5573,0.5597,0.5617,0.5663,0.535,0,0,0,0,0,0.5473,0.5466,0.546,0.5458,0.5441,0.5381,0.5386,0.5399,0.5492,0.5438,0.5501,0.5443,0.5444,0.5413,0.5409,0.548,0.5436,0.5443,0.5449,0.5637,0.5663,0.5685,0,0,0,0,0,0,0.5471,0.5458,0.5463,0.5455,0.5457,0.5383,0.543,0.5432,0.5488,0.5483,0.5452,0.5441,0.5388,0.5411,0.5408,0.5477,0.535,0.5439,0.5445,0.545,0.5645,0.5667,0.5685,0,0,0,0,0,0.5471,0.5462,0.5405,0.5459,0.546,0.5488,0.5426,0.5428,0.5461,0.5424,0.5415,0.5472,0.539,0.5384,0.5409,0.5481,0.5352,0.5351,0.5442,0.5447,0.5451,0.5656,0,0,0,0,0,0,0.5471,0.5466,0.5409,0.5416,0.544,0.5488,0.5481,0.5424,0.5395,0.5394,0.5437,0.5432,0.5392,0.5387,0.5383,0.5487,0.5353,0.5352,0.5352,0.5446,0.545,0.5453,0,0,0,0,0,0,0.5474,0.5468,0.5412,0.5386,0.5389,0.5489,0.5482,0.5481,0.5392,0.5405,0.5404,0.5435,0.5381,0.5389,0.5386,0.5389,0.5353,0.5353,0.5352,0.5352,0.5449,0.5452,0,0,0,0,0,0,0.5475,0.547,0.5383,0.5385,0.5388,0.5453,0.5488,0.5449,0.5433,0.5402,0.5427,0.5424,0.5383,0.538,0.5388,0.5393,0.539,0.5353,0.5353,0.5353,0.5352,0,0,0,0,0,0,0,0.5475,0.5466,0.5385,0.5385,0.5387,0.5482,0.5482,0.5482,0.5432,0.543,0.5428,0.5425,0.5357,0.5356,0.5356,0.5396,0,0,0.5353,0.5353,0,0,0,0,0,0,0,0,0.5471,0.5467,0.5386,0.5388,0.539,0.5482,0.5482,0.5482,0.5432,0.543,0.5428,0.5426,0.5357,0.5356,0.5356,0,0,0,0,0,0,0,0,0,0,0,0,0,0,0,0.5386,0.5388,0,0.5482,0.5482,0.5482,0.5431,0.543,0.5428,0.5427,0.5357,0.5356,0.5356,0,0,0,0,0,0,0,0,0,0,0,0,0,0,0,0,0,0,0,0,0,0,0,0,0,0,0,0,0,0,0,0,0,0,0,0,0,0,0,0,0,0,0,0,0,0,0,0,0,0,0,0,0,0,0,0,0,0,0,0,0,0,0,0,0,0,0,0,0]}],[{"header":{"parameterUnit":"kt","parameterCategory":2,"dx":1,"dy":1,"la1":30.253999710083008,"la2":30.299108505249023,"lo1":-89.0895004272461,"lo2":-89.04439544677734,"nx":28,"ny":28,"refTime":"2022-10-29T21:00:00:Z","depth":"2","parameterNumber":3,"parameterNumberName":"V-component_of_CURRENTS"},"data":[0.1537,0.175,0.1855,0.2206,0.2394,0.2659,0.281,0.2981,0.3102,0.3131,0.3058,0.2931,0.2268,0.1604,0.0927,0.0428,0.0357,0.0317,0.0425,0.0679,0.0697,0.0252,0.0342,0,0,0,0,0,0.1471,0.1609,0.1841,0.2111,0.2326,0.2421,0.2727,0.2859,0.3094,0.3212,0.3232,0.2688,0.2131,0.1526,0.0642,0.011,0.0108,-0.0078,0.0055,0.0071,0.0083,0.0126,-0.006,-0.0062,-0.0064,-0.0065,0,0,0.1356,0.1483,0.1679,0.192,0.213,0.2355,0.2533,0.276,0.2997,0.3169,0.3123,0.2981,0.245,0.1489,0.0918,0.0315,0.0348,0.0111,0.0122,0.0133,0.0173,0.0193,0.0003,0.0002,0.0002,0.0001,0.0001,0,0.1255,0.1318,0.1493,0.1742,0.1935,0.2148,0.2385,0.2551,0.2744,0.2882,0.298,0.2891,0.2341,0.1793,0.1072,0.0722,0.0431,0.0298,0.0372,0.0426,0.0454,0.0357,0.0365,0.0306,0.0307,0.0308,0.0309,0.0309,0.1115,0.1218,0.1459,0.1584,0.1702,0.1911,0.2078,0.2247,0.2422,0.2576,0.2667,0.2479,0.2364,0.1736,0.1204,0.0672,0.062,0.0346,0.031,0.0391,0.0287,0.0296,0.0303,0.0322,0.032,0.0319,0.0318,0,0.1046,0.1137,0.1339,0.1547,0.1622,0.1768,0.201,0.2167,0.2262,0.2438,0.2454,0.2356,0.2091,0.1714,0.1321,0.1005,0.0678,0.0538,0.0628,0.053,0.0323,0.0326,0.0239,0.0234,0.0231,0.0227,0.0225,0,0.0968,0.1113,0.1258,0.1364,0.1589,0.1645,0.1865,0.1968,0.2087,0.2225,0.2098,0.2146,0.1779,0.1572,0.1275,0.0906,0.0954,0.0628,0.0514,0.0573,0.0566,0.0593,0.0584,0.0682,0.0683,0.0684,0.0685,0,0.0832,0.1038,0.121,0.1279,0.146,0.1569,0.1662,0.1767,0.1886,0.1927,0.1976,0.1829,0.1754,0.1514,0.1203,0.1161,0.0924,0.0814,0.0557,0.0544,0.0514,0.0498,0.0687,0.0687,0.0688,0.0688,0.0689,0,0.0768,0.0873,0.1076,0.125,0.1301,0.1404,0.1592,0.1685,0.1734,0.1753,0.1706,0.1586,0.1529,0.1385,0.1152,0.1162,0.0971,0.0834,0.082,0.0684,0.0498,0.0419,0.0474,0.0581,0.0581,0.0582,0.0582,0,0.0652,0.0818,0.0846,0.1036,0.1139,0.1177,0.1297,0.1359,0.1387,0.1431,0.1337,0.134,0.1195,0.1166,0.1105,0.0933,0.0886,0.0936,0.0603,0.0595,0.0518,0.0583,0.0636,0.0483,0.0587,0.0586,0.0586,0,0.0529,0.0641,0.0666,0.0747,0.0831,0.089,0.1009,0.1114,0.1193,0.1138,0.1207,0.117,0.106,0.1039,0.0931,0.0899,0.0881,0.075,0.0741,0.0693,0.0691,0.0596,0.0582,0.0762,0.0763,0.0764,0.059,0,0.0496,0.0553,0.0587,0.0661,0.0707,0.0796,0.0832,0.0876,0.0857,0.0849,0.0866,0.0772,0.0734,0.0721,0.0658,0.0707,0.0603,0.052,0.0463,0.0545,0.0449,0.0447,0.0421,0.0417,0.0415,0.0412,0,0,0.0393,0.0452,0.0412,0.0477,0.0534,0.0498,0.0599,0.0619,0.0606,0.0626,0.0561,0.0494,0.0449,0.0492,0.0528,0.0464,0.0372,0.0486,0.0497,0.0508,0.0516,0.0431,0.0433,0.0407,0.0406,0.0405,0.0404,0,0.0382,0.0355,0.0387,0.0428,0.0453,0.0465,0.0482,0.0487,0.0502,0.0517,0.0429,0.0401,0.0353,0.0352,0.0339,0.0414,0.0313,0.0385,0.0545,0.0474,0.0488,0.05,0.042,0.0423,0.0397,0.0398,0.0398,0,0.0338,0.0324,0.0326,0.0345,0.0353,0.0422,0.0348,0.0379,0.0443,0.0294,0.0331,0.0252,0.0194,0.0218,0.0219,0.0186,0.0237,0.0233,0.0245,0.0303,0.0227,0.0243,0.0258,0.0074,0.0074,0.0074,0,0,0.0326,0.0325,0.0335,0.0342,0.0359,0.0344,0.0348,0.0345,0.0317,0.0304,0.0258,0.0205,0.0186,0.0175,0.0146,0.0155,0.0095,0.0201,0.0216,0.0229,0.0293,0.0222,0.0237,0.0073,0.0072,0.0072,0,0,0.0325,0.0312,0.0295,0.03,0.0331,0.0322,0.0335,0.0312,0.0282,0.0259,0.019,0.0176,0.0182,0.0131,0.0119,0.0167,0.0093,0.0094,0.023,0.0248,0.0262,0.0353,0.0087,0,0,0,0,0,0.0305,0.0315,0.0299,0.0297,0.0282,0.0326,0.0326,0.0304,0.0256,0.0294,0.0217,0.0195,0.012,0.0107,0.0096,0.0175,0.0056,0.0059,0.0062,0.0237,0.0256,0.0272,0,0,0,0,0,0,0.0304,0.0303,0.0299,0.0288,0.0284,0.0324,0.0261,0.0256,0.0254,0.0252,0.0204,0.0193,0.0156,0.011,0.0101,0.0178,0.009,0.0057,0.006,0.0062,0.0243,0.0259,0.0273,0,0,0,0,0,0.0303,0.0302,0.0284,0.0287,0.0284,0.026,0.0261,0.0257,0.0257,0.0202,0.0193,0.0244,0.0157,0.0146,0.0104,0.0185,0.0096,0.0093,0.0059,0.0061,0.0063,0.0251,0,0,0,0,0,0,0.0303,0.0297,0.0283,0.0281,0.0283,0.0259,0.0256,0.0257,0.0206,0.0198,0.0238,0.0236,0.0158,0.0149,0.0141,0.0192,0.0101,0.0098,0.0096,0.006,0.0062,0.0063,0,0,0,0,0,0,0.0297,0.0295,0.0282,0.0278,0.0275,0.0259,0.0256,0.0222,0.0204,0.0245,0.0242,0.0238,0.0156,0.0151,0.0144,0.0093,0.0105,0.0102,0.01,0.0098,0.0062,0.0063,0,0,0,0,0,0,0.0296,0.0294,0.0279,0.0277,0.0274,0.0248,0.0227,0.0203,0.0229,0.0246,0.0228,0.0227,0.0158,0.0152,0.0147,0.01,0.0095,0.0105,0.0103,0.0101,0.01,0,0,0,0,0,0,0,0.0295,0.0313,0.0296,0.0275,0.0273,0.026,0.0259,0.0258,0.0229,0.0228,0.0228,0.0227,0.0124,0.0121,0.0117,0.0104,0,0,0.0106,0.0104,0,0,0,0,0,0,0,0,0.0313,0.0313,0.0296,0.0295,0.0295,0.0259,0.0259,0.0259,0.0229,0.0228,0.0228,0.0228,0.0123,0.012,0.0117,0,0,0,0,0,0,0,0,0,0,0,0,0,0,0,0.0296,0.0295,0,0.0259,0.0259,0.0259,0.0229,0.0228,0.0228,0.0228,0.0122,0.012,0.0118,0,0,0,0,0,0,0,0,0,0,0,0,0,0,0,0,0,0,0,0,0,0,0,0,0,0,0,0,0,0,0,0,0,0,0,0,0,0,0,0,0,0,0,0,0,0,0,0,0,0,0,0,0,0,0,0,0,0,0,0,0,0,0,0,0,0,0,0,0]}]],[[{"header":{"parameterUnit":"kt","parameterCategory":2,"dx":1,"dy":1,"la1":30.253999710083008,"la2":30.299108505249023,"lo1":-89.0895004272461,"lo2":-89.04439544677734,"nx":28,"ny":28,"refTime":"2022-10-29T21:00:00:Z","depth":"4","parameterNumber":2,"parameterNumberName":"U-component_of_CURRENTS"},"data":[0.2181,0.2221,0.2199,0.2131,0.2118,0.2203,0.2339,0.2546,0.2565,0.2905,0.3008,0.3241,0.3444,0.3622,0.3645,0.3694,0.3622,0.4147,0.4137,0.4183,0.4209,0.4233,0.4033,0,0,0,0,0,0.2238,0.2212,0.2254,0.2293,0.238,0.2464,0.268,0.2812,0.3143,0.3145,0.331,0.3485,0.3621,0.3774,0.3722,0.4035,0.4157,0.3951,0.3969,0.4199,0.4229,0.4024,0,0,0,0,0,0,0.2298,0.2304,0.2384,0.2461,0.2587,0.2624,0.276,0.2891,0.3058,0.3464,0.3501,0.3815,0.4092,0.4111,0.4198,0.4219,0.4134,0.3953,0.3993,0.4024,0.382,0.3539,0.3509,0,0,0,0,0,0.2331,0.2425,0.2472,0.2575,0.2708,0.2812,0.3005,0.3092,0.3385,0.3662,0.3798,0.3922,0.4135,0.4262,0.4367,0.4392,0.4585,0.4518,0.453,0.4368,0.4195,0.417,0.4159,0.434,0.4344,0.4346,0.4348,0,0.243,0.2448,0.2621,0.2673,0.2755,0.2936,0.3045,0.3314,0.3433,0.3811,0.3898,0.4227,0.4389,0.4436,0.4622,0.4691,0.463,0.4596,0.4423,0.4239,0.4212,0.4193,0.4173,0.4372,0.437,0.4368,0.4366,0,0.2511,0.2549,0.2607,0.2752,0.2834,0.2939,0.3186,0.3306,0.3563,0.3802,0.3929,0.4221,0.4427,0.459,0.4817,0.4665,0.4715,0.4659,0.4768,0.4758,0.4233,0.4203,0.4411,0.4402,0.4395,0.4388,0.4383,0,0.2599,0.2636,0.2729,0.2734,0.2863,0.2942,0.3139,0.3278,0.3524,0.3691,0.393,0.4093,0.4346,0.4517,0.4541,0.4536,0.4781,0.4399,0.4391,0.4537,0.4508,0.4558,0.4527,0.4809,0.4808,0.4806,0.4805,0,0.2681,0.27,0.2716,0.2722,0.2803,0.2906,0.3001,0.3196,0.3317,0.3639,0.3793,0.4042,0.421,0.4356,0.4411,0.4358,0.465,0.4591,0.4359,0.4334,0.4539,0.451,0.4804,0.4804,0.4803,0.4803,0.4802,0,0.2714,0.2713,0.2703,0.2792,0.2811,0.2853,0.3046,0.3105,0.3337,0.3457,0.3669,0.3793,0.3982,0.393,0.4171,0.4093,0.4153,0.4186,0.4196,0.3932,0.3823,0.3998,0.4206,0.4201,0.4197,0.4193,0.4189,0,0.2796,0.2748,0.2746,0.2765,0.2758,0.2831,0.289,0.2989,0.3107,0.3274,0.3405,0.3574,0.3512,0.363,0.3733,0.3832,0.3935,0.3778,0.4056,0.4062,0.377,0.3907,0.3961,0.4127,0.4134,0.414,0.4144,0,0.2827,0.2786,0.2794,0.2817,0.2817,0.2819,0.2877,0.2951,0.3072,0.3121,0.3295,0.3356,0.3458,0.3504,0.3533,0.3639,0.3828,0.3648,0.3656,0.369,0.4171,0.3864,0.3871,0.3922,0.393,0.3936,0.4101,0,0.2824,0.2833,0.2824,0.2805,0.2813,0.2807,0.2825,0.2877,0.2946,0.2989,0.3152,0.3196,0.3326,0.331,0.3307,0.3493,0.348,0.3499,0.3472,0.3596,0.3638,0.3672,0.3256,0.3255,0.3254,0.3253,0,0,0.2898,0.285,0.2849,0.2823,0.2829,0.2853,0.2842,0.2862,0.2877,0.2952,0.2947,0.3116,0.3119,0.3252,0.3272,0.3265,0.3347,0.3255,0.3507,0.3535,0.3561,0.361,0.3644,0.3252,0.3251,0.3251,0.3251,0,0.2849,0.2879,0.286,0.284,0.2841,0.283,0.2843,0.2824,0.2867,0.2912,0.2962,0.3049,0.3079,0.3128,0.3159,0.3245,0.3273,0.3248,0.3316,0.3493,0.3521,0.3547,0.3601,0.3632,0.3249,0.3249,0.3249,0,0.2859,0.2842,0.2837,0.2807,0.2808,0.2783,0.2797,0.2807,0.282,0.2848,0.2906,0.2954,0.2997,0.3053,0.3086,0.3063,0.3222,0.3121,0.3127,0.3157,0.334,0.3371,0.3399,0.304,0.3039,0.3039,0,0,0.2845,0.2835,0.2793,0.2794,0.2793,0.2787,0.2791,0.2801,0.2819,0.2849,0.2867,0.2923,0.2974,0.3001,0.3027,0.3067,0.3129,0.3094,0.3104,0.3112,0.3146,0.3329,0.3359,0.3035,0.3035,0.3035,0,0,0.2822,0.2775,0.2799,0.2791,0.2768,0.2721,0.2747,0.2759,0.2815,0.2865,0.2871,0.2882,0.2957,0.2956,0.2917,0.3007,0.297,0.2977,0.2994,0.3006,0.3016,0.3049,0.2874,0,0,0,0,0,0.2771,0.277,0.2792,0.2789,0.2763,0.2709,0.2709,0.2733,0.2785,0.2791,0.2861,0.2839,0.2948,0.2913,0.2914,0.2942,0.2995,0.3002,0.3009,0.304,0.3054,0.3065,0,0,0,0,0,0,0.2769,0.2761,0.2792,0.2742,0.2737,0.271,0.2739,0.2745,0.2784,0.2793,0.283,0.2837,0.2831,0.291,0.2912,0.2939,0.2873,0.2997,0.3004,0.3009,0.3045,0.3056,0.3065,0,0,0,0,0,0.2767,0.2761,0.2718,0.2743,0.2739,0.2758,0.2742,0.2747,0.2795,0.2786,0.2797,0.282,0.2829,0.2835,0.2911,0.2939,0.2872,0.2873,0.3001,0.3006,0.3011,0.305,0,0,0,0,0,0,0.2766,0.2768,0.2718,0.2717,0.2765,0.2762,0.2762,0.2748,0.2789,0.2796,0.2771,0.2776,0.2827,0.2832,0.2836,0.2941,0.2871,0.2872,0.2872,0.3005,0.3009,0.3012,0,0,0,0,0,0,0.2772,0.2768,0.2718,0.2744,0.2747,0.2765,0.2766,0.2765,0.279,0.2772,0.2777,0.2773,0.2835,0.2829,0.2833,0.283,0.287,0.2871,0.2871,0.2872,0.3008,0.3011,0,0,0,0,0,0,0.2771,0.2767,0.2745,0.2747,0.275,0.2749,0.2768,0.2754,0.278,0.2771,0.2786,0.2789,0.2832,0.2836,0.283,0.2826,0.2829,0.287,0.2871,0.2871,0.2871,0,0,0,0,0,0,0,0.277,0.2786,0.2718,0.2749,0.2752,0.2714,0.2714,0.2714,0.2781,0.2783,0.2786,0.2788,0.2866,0.2867,0.2867,0.2822,0,0,0.287,0.287,0,0,0,0,0,0,0,0,0.2788,0.2787,0.2718,0.2717,0.2717,0.2714,0.2714,0.2714,0.2781,0.2783,0.2785,0.2787,0.2866,0.2867,0.2867,0,0,0,0,0,0,0,0,0,0,0,0,0,0,0,0.2718,0.2717,0,0.2714,0.2714,0.2714,0.2781,0.2783,0.2785,0.2786,0.2866,0.2867,0.2867,0,0,0,0,0,0,0,0,0,0,0,0,0,0,0,0,0,0,0,0,0,0,0,0,0,0,0,0,0,0,0,0,0,0,0,0,0,0,0,0,0,0,0,0,0,0,0,0,0,0,0,0,0,0,0,0,0,0,0,0,0,0,0,0,0,0,0,0,0]}],[{"header":{"parameterUnit":"kt","parameterCategory":2,"dx":1,"dy":1,"la1":30.253999710083008,"la2":30.299108505249023,"lo1":-89.0895004272461,"lo2":-89.04439544677734,"nx":28,"ny":28,"refTime":"2022-10-29T21:00:00:Z","depth":"4","parameterNumber":3,"parameterNumberName":"V-component_of_CURRENTS"},"data":[0.0965,0.1101,0.1183,0.1409,0.1535,0.1745,0.1866,0.1918,0.189,0.1922,0.1678,0.1586,0.1128,0.1414,0.0677,0.0582,0.0434,-0.0006,-0.0015,-0.0194,-0.0185,-0.0177,-0.0043,0,0,0,0,0,0.0959,0.1048,0.1195,0.1393,0.1581,0.1694,0.1876,0.1937,0.203,0.198,0.1963,0.1704,0.1232,0.1035,0.0697,0.0612,0.0196,0.02,0.0054,-0.0188,-0.0178,-0.0052,0,0,0,0,0,0,0.0949,0.1024,0.1179,0.135,0.1542,0.1702,0.1786,0.1871,0.1951,0.1971,0.1932,0.1659,0.1505,0.1014,0.068,0.0351,0.0266,0.0149,0.014,0.0146,0.0293,0.0402,0.0254,0,0,0,0,0,0.0936,0.1008,0.1126,0.132,0.147,0.1632,0.179,0.1854,0.195,0.1973,0.1893,0.1654,0.1366,0.0981,0.0617,0.0285,0.0089,-0.0043,-0.0039,-0.0001,0.0051,0.0008,0.0028,-0.0139,-0.0138,-0.0137,-0.0137,0,0.0899,0.0981,0.1182,0.1274,0.1363,0.1522,0.1636,0.1738,0.1803,0.1825,0.1844,0.1655,0.1528,0.0992,0.0684,0.0215,0.0152,-0.0015,0.0028,0.007,0.0019,0.0038,0.0055,-0.0128,-0.0129,-0.013,-0.013,0,0.0875,0.0968,0.1113,0.1271,0.1335,0.1434,0.1598,0.1667,0.1698,0.1758,0.1767,0.164,0.139,0.1103,0.0738,0.0534,0.0236,0.0122,0.0314,0.0257,0.0062,0.0076,-0.0115,-0.0118,-0.012,-0.0122,-0.0124,0,0.0854,0.0953,0.1084,0.1161,0.1307,0.1362,0.1486,0.1523,0.1566,0.1617,0.153,0.1517,0.126,0.1064,0.0825,0.051,0.0511,0.0294,0.0223,0.0381,0.0392,0.0312,0.0317,0.0285,0.0287,0.0289,0.029,0,0.0778,0.0928,0.1051,0.11,0.1229,0.1295,0.1359,0.1388,0.1441,0.1433,0.1443,0.1324,0.1273,0.106,0.081,0.0817,0.0511,0.0478,0.0288,0.0282,0.0324,0.0326,0.0292,0.0292,0.0293,0.0294,0.0294,0,0.0748,0.083,0.0976,0.1094,0.1126,0.1201,0.1279,0.1338,0.1336,0.1336,0.1301,0.1234,0.1156,0.1091,0.0843,0.0905,0.0739,0.061,0.0598,0.0514,0.0443,0.0413,0.0424,0.0426,0.0428,0.043,0.0432,0,0.0667,0.0798,0.0827,0.0958,0.1032,0.1049,0.1117,0.1148,0.115,0.1168,0.1104,0.1106,0.1039,0.103,0.0951,0.0794,0.0714,0.0811,0.0513,0.0504,0.0469,0.0467,0.0687,0.046,0.0457,0.0454,0.0452,0,0.0586,0.0691,0.0705,0.0761,0.0827,0.0871,0.0941,0.0991,0.1022,0.1029,0.1056,0.1027,0.0973,0.0953,0.0895,0.0827,0.0747,0.0752,0.0744,0.0661,0.0537,0.0503,0.0483,0.0696,0.0694,0.0692,0.0472,0,0.0566,0.0615,0.0649,0.0706,0.0742,0.081,0.0832,0.0867,0.0873,0.0875,0.0883,0.0833,0.0813,0.0806,0.077,0.0751,0.0698,0.0658,0.0609,0.0647,0.0545,0.053,0.0673,0.0671,0.0669,0.0668,0,0,0.0476,0.0532,0.0517,0.0572,0.0611,0.0598,0.0669,0.0693,0.0722,0.0729,0.0712,0.069,0.0657,0.066,0.0683,0.0664,0.0593,0.0679,0.0642,0.064,0.0638,0.0542,0.053,0.0665,0.0664,0.0663,0.0663,0,0.0464,0.0458,0.0495,0.0527,0.0559,0.0574,0.0589,0.0623,0.0638,0.0681,0.0625,0.0605,0.0618,0.059,0.0577,0.0638,0.0553,0.0644,0.0721,0.0629,0.063,0.063,0.0537,0.0527,0.0658,0.0658,0.0659,0,0.0412,0.0418,0.0429,0.0459,0.0477,0.053,0.0491,0.0536,0.0582,0.0507,0.0557,0.0519,0.0482,0.0509,0.0515,0.0495,0.0501,0.0537,0.0545,0.0548,0.0449,0.0451,0.0452,0.0427,0.0427,0.0426,0,0,0.0397,0.0415,0.043,0.0455,0.0469,0.0482,0.05,0.0507,0.0512,0.0515,0.0502,0.0482,0.047,0.0471,0.0458,0.0489,0.0413,0.0513,0.0524,0.0533,0.0541,0.0446,0.0448,0.0425,0.0425,0.0425,0,0,0.0394,0.0403,0.039,0.0418,0.0444,0.0467,0.0492,0.0489,0.0497,0.049,0.045,0.0442,0.0456,0.0432,0.0418,0.046,0.0409,0.0411,0.0494,0.0507,0.0518,0.0531,0.0376,0,0,0,0,0,0.0376,0.0402,0.0389,0.0393,0.0423,0.047,0.0477,0.0477,0.0457,0.0486,0.0459,0.0432,0.0416,0.0404,0.0401,0.0445,0.0408,0.0411,0.0414,0.0526,0.054,0.0552,0,0,0,0,0,0,0.0377,0.0382,0.0389,0.0409,0.0415,0.0469,0.0432,0.0434,0.0455,0.0452,0.0438,0.0431,0.0406,0.0403,0.0401,0.0444,0.0377,0.041,0.0412,0.0414,0.0531,0.0542,0.0552,0,0,0,0,0,0.0379,0.0383,0.0425,0.0409,0.0415,0.0422,0.0431,0.0432,0.0454,0.0423,0.0418,0.0451,0.0407,0.0403,0.0402,0.0446,0.0378,0.0377,0.0411,0.0413,0.0415,0.0536,0,0,0,0,0,0,0.038,0.0394,0.0427,0.0429,0.0391,0.042,0.0423,0.043,0.0422,0.0419,0.0431,0.0429,0.0409,0.0405,0.0402,0.0449,0.0379,0.0378,0.0378,0.0413,0.0414,0.0416,0,0,0,0,0,0,0.0392,0.0396,0.0428,0.0405,0.0405,0.0418,0.0421,0.042,0.042,0.0431,0.0429,0.043,0.0389,0.0407,0.0405,0.0407,0.0379,0.0379,0.0378,0.0378,0.0414,0.0415,0,0,0,0,0,0,0.0394,0.0398,0.0405,0.0405,0.0405,0.0435,0.0416,0.0434,0.0441,0.043,0.0436,0.0434,0.039,0.0388,0.0406,0.0411,0.0408,0.0379,0.0379,0.0379,0.0378,0,0,0,0,0,0,0,0.0396,0.0365,0.0408,0.0405,0.0405,0.0451,0.0452,0.0453,0.044,0.0439,0.0437,0.0435,0.0382,0.0381,0.0381,0.0413,0,0,0.0379,0.0379,0,0,0,0,0,0,0,0,0.0364,0.0365,0.0408,0.0408,0.0408,0.0451,0.0452,0.0453,0.044,0.0439,0.0437,0.0436,0.0382,0.0381,0.0381,0,0,0,0,0,0,0,0,0,0,0,0,0,0,0,0.0408,0.0408,0,0.0451,0.0452,0.0453,0.044,0.0439,0.0437,0.0436,0.0381,0.0381,0.0381,0,0,0,0,0,0,0,0,0,0,0,0,0,0,0,0,0,0,0,0,0,0,0,0,0,0,0,0,0,0,0,0,0,0,0,0,0,0,0,0,0,0,0,0,0,0,0,0,0,0,0,0,0,0,0,0,0,0,0,0,0,0,0,0,0,0,0,0,0]}]]]